When you browse on this site, cookies collect data to enhance your experience and personalize the content and advertising you see.
Visit our Privacy Policy to learn more. By continuing to use the site, you agree to this use of cookies and data.
  • In Hungary
  • List of Countries
  • For 7 days
  • Water Temperature
  • Weather Map
  • News
  • Weather Widgets
  • user-avatar
    Login

    Hourly Weather Bannur

    Today, 24 February, Monday

    Time Temperature Precipitation Wind Pressure Humidity
    00:00 +21°C° 0 mm 3 mps 700 mmHg 75%
    01:00 +20°C° 0 mm 2 mps 699 mmHg 83%
    02:00 +19°C° 0 mm 2 mps 698 mmHg 91%
    03:00 +19°C° 0 mm 2 mps 698 mmHg 92%
    04:00 +19°C° 0 mm 2 mps 698 mmHg 93%
    05:00 +20°C° 0 mm 1 mps 698 mmHg 97%
    06:00 +21°C° 0 mm 1 mps 699 mmHg 91%
    07:00 +21°C° 0 mm 2 mps 699 mmHg 85%
    08:00 +23°C° 0 mm 2 mps 700 mmHg 79%
    09:00 +26°C° 0 mm 3 mps 700 mmHg 63%
    10:00 +28°C° 0 mm 3 mps 700 mmHg 47%
    11:00 +32°C° 0 mm 4 mps 701 mmHg 30%
    12:00 +33°C° 0 mm 4 mps 700 mmHg 26%
    13:00 +34°C° 0 mm 4 mps 699 mmHg 22%
    14:00 +36°C° 0 mm 4 mps 698 mmHg 18%
    15:00 +35°C° 0 mm 4 mps 698 mmHg 19%
    16:00 +34°C° 0 mm 4 mps 698 mmHg 20%
    17:00 +33°C° 0 mm 4 mps 697 mmHg 22%
    18:00 +30°C° 0 mm 4 mps 698 mmHg 27%
    19:00 +28°C° 0 mm 3 mps 698 mmHg 32%
    20:00 +26°C° 0 mm 3 mps 698 mmHg 37%
    21:00 +25°C° 0 mm 3 mps 699 mmHg 41%
    22:00 +24°C° 0 mm 2 mps 699 mmHg 44%
    23:00 +23°C° 0 mm 2 mps 699 mmHg 48%

    Tomorrow, 25 February, Tuesday

    Time Temperature Precipitation Wind Pressure Humidity
    00:00 +21°C° 0 mm 2 mps 698 mmHg 54%
    01:00 +21°C° 0 mm 1 mps 698 mmHg 61%
    02:00 +20°C° 0 mm 1 mps 697 mmHg 67%
    03:00 +20°C° 0 mm 1 mps 697 mmHg 72%
    04:00 +19°C° 0 mm 1 mps 697 mmHg 76%
    05:00 +19°C° 0 mm 1 mps 697 mmHg 81%
    06:00 +20°C° 0 mm 1 mps 698 mmHg 75%
    07:00 +22°C° 0 mm 1 mps 698 mmHg 70%
    08:00 +24°C° 0 mm 2 mps 699 mmHg 64%
    09:00 +26°C° 0 mm 2 mps 699 mmHg 52%
    10:00 +29°C° 0 mm 2 mps 700 mmHg 41%
    11:00 +32°C° 0 mm 2 mps 700 mmHg 29%
    12:00 +34°C° 0 mm 3 mps 699 mmHg 25%
    13:00 +35°C° 0 mm 3 mps 698 mmHg 21%
    14:00 +36°C° 0 mm 3 mps 697 mmHg 18%
    15:00 +36°C° 0 mm 3 mps 697 mmHg 18%
    16:00 +36°C° 0 mm 3 mps 697 mmHg 19%
    17:00 +35°C° 0 mm 3 mps 697 mmHg 19%
    18:00 +33°C° 0 mm 3 mps 697 mmHg 25%
    19:00 +29°C° 0 mm 3 mps 697 mmHg 31%
    20:00 +26°C° 0 mm 3 mps 698 mmHg 37%
    21:00 +25°C° 0 mm 2 mps 698 mmHg 43%
    22:00 +24°C° 0 mm 2 mps 698 mmHg 49%
    23:00 +23°C° 0 mm 1 mps 698 mmHg 55%

    Day after tomorrow, 26 February, Wednesday

    Time Temperature Precipitation Wind Pressure Humidity
    00:00 +22°C° 0 mm 1 mps 698 mmHg 60%
    01:00 +22°C° 0 mm 1 mps 697 mmHg 65%
    02:00 +21°C° 0 mm 1 mps 697 mmHg 70%
    03:00 +21°C° 0 mm 1 mps 697 mmHg 75%
    04:00 +20°C° 0 mm 1 mps 697 mmHg 79%
    05:00 +20°C° 0 mm 1 mps 696 mmHg 83%
    06:00 +20°C° 0 mm 2 mps 697 mmHg 77%
    07:00 +23°C° 0 mm 2 mps 698 mmHg 70%
    08:00 +24°C° 0 mm 2 mps 699 mmHg 63%
    09:00 +27°C° 0 mm 2 mps 699 mmHg 54%
    10:00 +30°C° 0 mm 2 mps 699 mmHg 44%
    11:00 +32°C° 0 mm 2 mps 700 mmHg 34%
    12:00 +34°C° 0 mm 3 mps 699 mmHg 30%
    13:00 +35°C° 0 mm 3 mps 698 mmHg 27%
    14:00 +36°C° 0 mm 3 mps 697 mmHg 23%
    15:00 +36°C° 0 mm 3 mps 697 mmHg 23%
    16:00 +36°C° 0 mm 4 mps 697 mmHg 24%
    17:00 +35°C° 0 mm 4 mps 697 mmHg 24%
    18:00 +33°C° 0 mm 4 mps 697 mmHg 30%
    19:00 +29°C° 0 mm 4 mps 698 mmHg 36%
    20:00 +27°C° 0 mm 3 mps 698 mmHg 42%
    21:00 +26°C° 0 mm 3 mps 698 mmHg 48%
    22:00 +25°C° 0 mm 2 mps 698 mmHg 53%
    23:00 +24°C° 0 mm 1 mps 698 mmHg 59%

    27 February, Thursday

    Time Temperature Precipitation Wind Pressure Humidity
    00:00 +23°C° 0 mm 1 mps 698 mmHg 62%
    01:00 +23°C° 0 mm 1 mps 698 mmHg 66%
    02:00 +22°C° 0 mm 1 mps 697 mmHg 70%
    03:00 +21°C° 0 mm 1 mps 697 mmHg 73%
    04:00 +21°C° 0 mm 1 mps 697 mmHg 76%
    05:00 +20°C° 0 mm 1 mps 697 mmHg 79%
    06:00 +22°C° 0 mm 1 mps 698 mmHg 73%
    07:00 +23°C° 0 mm 2 mps 699 mmHg 68%
    08:00 +25°C° 0 mm 2 mps 700 mmHg 62%
    09:00 +27°C° 0 mm 2 mps 700 mmHg 52%
    10:00 +30°C° 0 mm 3 mps 700 mmHg 43%
    11:00 +33°C° 0 mm 3 mps 700 mmHg 33%
    12:00 +34°C° 0 mm 3 mps 699 mmHg 29%
    13:00 +36°C° 0 mm 4 mps 698 mmHg 26%
    14:00 +37°C° 0 mm 4 mps 698 mmHg 22%
    15:00 +36°C° 0 mm 4 mps 697 mmHg 23%
    16:00 +36°C° 0 mm 5 mps 697 mmHg 24%
    17:00 +35°C° 0 mm 5 mps 697 mmHg 24%
    18:00 +33°C° 0 mm 5 mps 698 mmHg 29%
    19:00 +29°C° 0 mm 4 mps 698 mmHg 34%
    20:00 +27°C° 0 mm 4 mps 698 mmHg 39%
    21:00 +26°C° 0 mm 3 mps 698 mmHg 45%
    22:00 +25°C° 0 mm 3 mps 698 mmHg 50%
    23:00 +24°C° 0 mm 2 mps 698 mmHg 56%

    28 February, Friday

    Time Temperature Precipitation Wind Pressure Humidity
    00:00 +23°C° 0 mm 2 mps 698 mmHg 59%
    01:00 +21°C° 0 mm 2 mps 697 mmHg 63%
    02:00 +21°C° 0 mm 2 mps 697 mmHg 66%
    03:00 +21°C° 0 mm 1 mps 697 mmHg 69%
    04:00 +21°C° 0 mm 1 mps 697 mmHg 72%
    05:00 +20°C° 0 mm 1 mps 697 mmHg 75%
    06:00 +22°C° 0 mm 1 mps 698 mmHg 69%
    07:00 +23°C° 0 mm 1 mps 698 mmHg 63%
    08:00 +25°C° 0 mm 2 mps 699 mmHg 58%
    09:00 +27°C° 0 mm 2 mps 699 mmHg 48%
    10:00 +30°C° 0 mm 3 mps 699 mmHg 39%
    11:00 +33°C° 0 mm 3 mps 699 mmHg 30%
    12:00 +34°C° 0 mm 3 mps 698 mmHg 27%
    13:00 +35°C° 0 mm 3 mps 698 mmHg 25%
    14:00 +36°C° 0 mm 3 mps 697 mmHg 23%
    15:00 +35°C° 0 mm 4 mps 697 mmHg 23%
    16:00 +35°C° 0 mm 4 mps 696 mmHg 24%
    17:00 +34°C° 0 mm 4 mps 696 mmHg 25%
    18:00 +33°C° 0 mm 4 mps 697 mmHg 28%
    19:00 +30°C° 0 mm 3 mps 697 mmHg 30%
    20:00 +29°C° 0 mm 3 mps 698 mmHg 33%
    21:00 +27°C° 0 mm 2 mps 698 mmHg 39%
    22:00 +26°C° 0 mm 2 mps 698 mmHg 45%
    23:00 +24°C° 0 mm 2 mps 698 mmHg 51%

    29 February, Saturday

    Time Temperature Precipitation Wind Pressure Humidity
    00:00 +23°C° 0 mm 2 mps 697 mmHg 56%
    01:00 +23°C° 0 mm 2 mps 697 mmHg 61%
    02:00 +21°C° 0 mm 3 mps 697 mmHg 66%
    03:00 +20°C° 0 mm 2 mps 697 mmHg 70%
    04:00 +20°C° 0 mm 2 mps 697 mmHg 74%
    05:00 +20°C° 0 mm 1 mps 697 mmHg 78%
    06:00 +21°C° 0 mm 1 mps 697 mmHg 73%
    07:00 +23°C° 0 mm 1 mps 698 mmHg 67%
    08:00 +24°C° 0 mm 1 mps 699 mmHg 61%
    09:00 +27°C° 0 mm 2 mps 699 mmHg 51%
    10:00 +29°C° 0 mm 2 mps 699 mmHg 41%
    11:00 +32°C° 0 mm 2 mps 699 mmHg 32%
    12:00 +34°C° 0 mm 3 mps 698 mmHg 29%
    13:00 +35°C° 0 mm 3 mps 697 mmHg 26%
    14:00 +36°C° 0 mm 3 mps 697 mmHg 23%
    15:00 +36°C° 0 mm 3 mps 696 mmHg 23%
    16:00 +35°C° 0 mm 3 mps 696 mmHg 22%
    17:00 +35°C° 0 mm 3 mps 696 mmHg 22%
    18:00 +33°C° 0 mm 3 mps 697 mmHg 27%
    19:00 +30°C° 0 mm 3 mps 697 mmHg 31%
    20:00 +28°C° 0 mm 3 mps 698 mmHg 35%
    21:00 +26°C° 0 mm 2 mps 698 mmHg 45%
    22:00 +25°C° 0 mm 2 mps 698 mmHg 54%
    23:00 +23°C° 0 mm 1 mps 698 mmHg 64%
    Show more